User: anonymous   Login
Location: Morlupo
(42.1333°N, 12.5000°E)
Time: 02:09:25
(UTC+00:00)
Language:

Exosat Rocket - Orbit

View from above orbital plane
View from above orbital plane
View from above satellite
View from above satellite

Ground track
Ground track

The orbit data is extracted from the following two-line orbital elements,

1 14096U 83051B   20338.27508336  .00000711  00000-0  12235-2 0  9991
2 14096  72.2984 182.2024 1095343 334.1560  20.8414 12.09741594656873
Epoch (UTC): 03 December 2020 06:36:07
Eccentricity: 0.1095343
inclination: 72.2984°
perigee height: 759 km
apogee height: 2515 km
right ascension of ascending node: 182.2024°
argument of perigee: 334.1560°
revolutions per day: 12.09741594
mean anomaly at epoch: 20.8414°
orbit number at epoch: 65687

The dashed part of the orbit path shows where the satellite is in the earth's shadow,  

DLR